Tracking 20037 objects as of 20-Nov-2019
Live streaming from Space Station
objects crossing your sky now

COSMOS 1197

Track COSMOS 1197 now!
10-day predictions
COSMOS 1197 is classified as:


NORAD ID: 11880
Int'l Code: 1980-058F
Perigee: 1,478.4 km
Apogee: 1,498.7 km
Inclination: 74.0 °
Period: 115.6 minutes
Semi major axis: 7859 km
RCS: 0.6693 m2 (medium)
Launch date: July 9, 1980
Source: Commonwealth of Independent States (former USSR) (CIS)
Launch site: PLESETSK MISSILE AND SPACE COMPLEX (PKMTR)
aabbcc
Your satellite tracking list
Your tracking list is empty




NASA's NSSDC Master Catalog

Two Line Element Set (TLE):
1 11880U 80058F   19323.73371836 -.00000015 +00000-0 +68800-5 0  9999
2 11880 074.0209 052.7552 0012937 038.9335 321.2643 12.45971518790450
Source of the keplerian elements: AFSPC